time, beta470, beta532, beta650
yyyy/mm/dd HH:MM:SS.fff, counts, counts, counts
2023/06/20 23:00:11.995, 110, 128, 84
2023/06/20 23:00:13.131, 113, 135, 85
2023/06/20 23:00:14.251, 112, 140, 87
2023/06/20 23:00:15.387, 111, 132, 90
2023/06/20 23:00:16.507, 111, 132, 84
2023/06/20 23:00:17.643, 115, 135, 101
2023/06/20 23:00:18.779, 112, 134, 83
2023/06/20 23:00:19.898, 108, 132, 83
2023/06/20 23:00:21.034, 108, 129, 84
2023/06/20 23:00:22.170, 109, 128, 84
2023/06/20 23:00:23.290, 111, 126, 84
2023/06/20 23:00:24.426, 116, 140, 88
2023/06/20 23:00:25.562, 111, 127, 100
2023/06/20 23:00:26.682, 112, 131, 99
2023/06/20 23:00:27.818, 111, 143, 100
2023/06/20 23:00:28.938, 114, 156, 93
2023/06/20 23:00:30.074, 109, 140, 88
2023/06/20 23:00:31.210, 111, 133, 88
2023/06/20 23:00:32.330, 135, 133, 88
2023/06/20 23:00:33.465, 118, 133, 172
2023/06/20 23:00:34.601, 121, 131, 226
2023/06/20 23:00:35.721, 121, 136, 91
2023/06/20 23:00:36.857, 119, 133, 87
2023/06/20 23:00:37.977, 115, 149, 85
2023/06/20 23:00:39.113, 120, 137, 90
2023/06/20 23:00:40.249, 287, 145, 100
2023/06/20 23:00:41.369, 200, 144, 91
2023/06/20 23:00:42.505, 121, 144, 93
2023/06/20 23:00:43.641, 122, 146, 93
2023/06/20 23:00:44.761, 124, 150, 115
2023/06/20 23:00:45.897, 122, 146, 104
2023/06/20 23:00:47.033, 124, 145, 89
2023/06/20 23:00:48.152, 125, 149, 93
2023/06/20 23:00:49.288, 122, 154, 97
2023/06/20 23:00:50.408, 129, 148, 90
2023/06/20 23:00:51.545, 122, 147, 108
2023/06/20 23:00:52.680, 132, 152, 90
2023/06/20 23:00:53.800, 122, 149, 91
2023/06/20 23:00:54.936, 123, 152, 98
2023/06/20 23:00:56.072, 124, 153, 92
2023/06/20 23:00:57.192, 131, 152, 93
2023/06/20 23:00:58.328, 125, 149, 89
2023/06/20 23:00:59.448, 124, 149, 90
2023/06/20 23:01:00.584, 120, 154, 91
2023/06/20 23:01:01.720, 124, 151, 94
2023/06/20 23:01:02.840, 126, 150, 90
2023/06/20 23:01:03.976, 126, 147, 91
2023/06/20 23:01:05.112, 130, 150, 93
2023/06/20 23:01:06.232, 127, 143, 87
2023/06/20 23:01:07.367, 125, 148, 89
2023/06/20 23:01:08.487, 121, 147, 92
2023/06/20 23:01:09.623, 121, 150, 150
2023/06/20 23:01:10.759, 120, 153, 91
2023/06/20 23:01:11.879, 127, 155, 93
2023/06/20 23:01:13.015, 127, 147, 86
2023/06/20 23:01:14.151, 123, 143, 89
2023/06/20 23:01:15.271, 124, 148, 89
2023/06/20 23:01:16.407, 120, 146, 91
2023/06/20 23:01:17.527, 121, 141, 91
2023/06/20 23:01:18.663, 135, 141, 85
2023/06/20 23:01:19.799, 121, 137, 86
2023/06/20 23:01:20.919, 117, 142, 101
2023/06/20 23:01:22.054, 119, 142, 89
2023/06/20 23:01:23.191, 120, 150, 91
2023/06/20 23:01:24.310, 124, 157, 89
2023/06/20 23:01:25.446, 118, 149, 88
2023/06/20 23:01:26.566, 118, 146, 89
2023/06/20 23:01:27.703, 118, 139, 87
2023/06/20 23:01:28.838, 117, 144, 87
2023/06/20 23:01:29.958, 120, 137, 88
2023/06/20 23:01:31.094, 117, 140, 87
2023/06/20 23:01:32.230, 117, 135, 89
2023/06/20 23:01:33.350, 118, 138, 81
2023/06/20 23:01:34.486, 118, 138, 89
2023/06/20 23:01:35.606, 116, 136, 87
2023/06/20 23:01:36.742, 120, 142, 84
2023/06/20 23:01:37.878, 116, 142, 88
2023/06/20 23:01:38.997, 117, 137, 89
2023/06/20 23:01:40.133, 117, 137, 86
2023/06/20 23:01:41.253, 113, 136, 87
2023/06/20 23:01:42.389, 118, 136, 86
2023/06/20 23:01:43.525, 117, 135, 83
2023/06/20 23:01:44.645, 110, 133, 87
2023/06/20 23:01:45.781, 114, 134, 90
2023/06/20 23:01:46.917, 113, 136, 83
2023/06/20 23:01:48.037, 115, 140, 85
2023/06/20 23:01:49.172, 113, 138, 82
2023/06/20 23:01:50.292, 115, 136, 88
2023/06/20 23:01:51.429, 113, 134, 92
2023/06/20 23:01:52.565, 111, 132, 102
2023/06/20 23:01:53.685, 111, 135, 149
2023/06/20 23:01:54.821, 114, 135, 139
2023/06/20 23:01:55.957, 113, 136, 109
2023/06/20 23:01:57.076, 112, 131, 92
2023/06/20 23:01:58.212, 111, 132, 87
2023/06/20 23:01:59.348, 112, 136, 92
2023/06/20 23:02:00.469, 111, 132, 87
2023/06/20 23:02:01.604, 125, 131, 92
2023/06/20 23:02:02.724, 111, 125, 86
2023/06/20 23:02:03.860, 109, 128, 85
2023/06/20 23:02:04.996, 108, 129, 87
2023/06/20 23:02:06.116, 113, 131, 88
2023/06/20 23:02:07.252, 111, 135, 89
2023/06/20 23:02:08.387, 114, 128, 88
2023/06/20 23:02:09.508, 110, 123, 85
2023/06/20 23:02:10.644, 110, 124, 85
2023/06/20 23:02:11.764, 107, 123, 87
2023/06/20 23:02:12.900, 104, 124, 82
2023/06/20 23:02:14.035, 115, 126, 82
2023/06/20 23:02:15.155, 111, 131, 83
2023/06/20 23:02:16.291, 109, 133, 86
2023/06/20 23:02:17.427, 112, 129, 83
2023/06/20 23:02:18.547, 110, 124, 79
2023/06/20 23:02:19.683, 110, 119, 79
2023/06/20 23:02:20.803, 107, 128, 80
2023/06/20 23:02:21.939, 111, 124, 85
2023/06/20 23:02:23.075, 125, 125, 84
2023/06/20 23:02:24.195, 110, 125, 92
2023/06/20 23:02:25.331, 111, 125, 83
2023/06/20 23:02:26.466, 110, 133, 84
2023/06/20 23:02:27.587, 110, 126, 83
2023/06/20 23:02:28.723, 107, 127, 82
2023/06/20 23:02:29.842, 107, 125, 82
2023/06/20 23:02:30.978, 108, 119, 86
2023/06/20 23:02:32.114, 105, 124, 79
2023/06/20 23:02:33.234, 108, 128, 81
2023/06/20 23:02:34.370, 106, 122, 80
2023/06/20 23:02:35.490, 104, 115, 77
2023/06/20 23:02:36.626, 106, 124, 79
2023/06/20 23:02:37.762, 104, 121, 79
2023/06/20 23:02:38.881, 105, 118, 108
2023/06/20 23:02:40.018, 106, 118, 82
2023/06/20 23:02:41.154, 103, 121, 82
2023/06/20 23:02:42.274, 106, 117, 81
2023/06/20 23:02:43.410, 104, 123, 82
2023/06/20 23:02:44.530, 107, 120, 77
2023/06/20 23:02:45.665, 104, 120, 81
2023/06/20 23:02:46.801, 101, 120, 76
2023/06/20 23:02:47.921, 105, 120, 77
2023/06/20 23:02:49.057, 105, 118, 81
2023/06/20 23:02:50.194, 101, 119, 78
2023/06/20 23:02:51.313, 103, 117, 80
2023/06/20 23:02:52.449, 102, 117, 81
2023/06/20 23:02:53.569, 105, 118, 82
2023/06/20 23:02:54.705, 104, 117, 81
2023/06/20 23:02:55.841, 101, 113, 82
2023/06/20 23:02:56.961, 101, 116, 84
2023/06/20 23:02:58.097, 102, 115, 82
2023/06/20 23:02:59.232, 101, 115, 76
2023/06/20 23:03:00.353, 101, 120, 78
2023/06/20 23:03:01.488, 104, 118, 77
2023/06/20 23:03:02.608, 103, 117, 74
2023/06/20 23:03:03.744, 100, 119, 76
2023/06/20 23:03:04.880, 105, 117, 80
2023/06/20 23:03:06.000, 99, 112, 81
2023/06/20 23:03:07.136, 102, 110, 89
2023/06/20 23:03:08.256, 105, 112, 86
2023/06/20 23:03:09.392, 102, 114, 80
2023/06/20 23:03:10.528, 102, 116, 81
2023/06/20 23:03:11.648, 102, 115, 80
2023/06/20 23:03:12.784, 102, 117, 75
2023/06/20 23:03:13.920, 102, 115, 75
2023/06/20 23:03:15.040, 103, 113, 75
2023/06/20 23:03:16.176, 100, 109, 73
2023/06/20 23:03:17.295, 99, 113, 75
2023/06/20 23:03:18.431, 100, 116, 75
2023/06/20 23:03:19.567, 101, 115, 76
2023/06/20 23:03:20.687, 104, 111, 76
2023/06/20 23:03:21.824, 99, 113, 78
2023/06/20 23:03:22.943, 98, 109, 74
2023/06/20 23:03:24.079, 101, 112, 78
2023/06/20 23:03:25.215, 101, 112, 73
2023/06/20 23:03:26.335, 97, 116, 75
2023/06/20 23:03:27.471, 99, 112, 76
2023/06/20 23:03:28.591, 100, 111, 72
2023/06/20 23:03:29.727, 99, 112, 70
2023/06/20 23:03:30.863, 99, 109, 74
2023/06/20 23:03:31.982, 97, 113, 71
2023/06/20 23:03:33.119, 100, 111, 74
2023/06/20 23:03:34.238, 99, 112, 96
2023/06/20 23:03:35.374, 107, 111, 83
2023/06/20 23:03:36.494, 98, 113, 125
2023/06/20 23:03:37.629, 100, 111, 72
2023/06/20 23:03:38.766, 96, 107, 73
2023/06/20 23:03:39.886, 99, 107, 76
2023/06/20 23:03:41.022, 98, 110, 74
2023/06/20 23:03:42.142, 97, 111, 73
2023/06/20 23:03:43.278, 98, 107, 74
2023/06/20 23:03:44.414, 97, 111, 73
2023/06/20 23:03:45.534, 98, 108, 71
2023/06/20 23:03:46.669, 96, 111, 72
2023/06/20 23:03:47.790, 95, 108, 71
2023/06/20 23:03:48.925, 98, 110, 71
2023/06/20 23:03:50.045, 96, 105, 75
2023/06/20 23:03:51.181, 97, 106, 67
2023/06/20 23:03:52.317, 98, 108, 72
2023/06/20 23:03:53.437, 95, 108, 74
2023/06/20 23:03:54.573, 97, 109, 73
2023/06/20 23:03:55.692, 101, 105, 70
2023/06/20 23:03:56.829, 100, 106, 75
2023/06/20 23:03:57.965, 96, 105, 71
2023/06/20 23:03:59.085, 97, 108, 70
2023/06/20 23:04:00.221, 97, 103, 74
2023/06/20 23:04:01.340, 95, 106, 74
2023/06/20 23:04:02.477, 99, 108, 75
2023/06/20 23:04:03.597, 97, 104, 69
2023/06/20 23:04:04.732, 94, 105, 81
2023/06/20 23:04:05.869, 94, 104, 80
2023/06/20 23:04:06.989, 96, 103, 78
2023/06/20 23:04:08.124, 92, 104, 80
2023/06/20 23:04:09.244, 96, 105, 78
2023/06/20 23:04:10.380, 94, 104, 85
2023/06/20 23:04:11.500, 94, 105, 81
2023/06/20 23:04:12.636, 95, 102, 80
2023/06/20 23:04:13.772, 95, 107, 85
2023/06/20 23:04:14.892, 96, 103, 83
2023/06/20 23:04:16.028, 93, 106, 82
2023/06/20 23:04:17.148, 94, 103, 76
2023/06/20 23:04:18.284, 94, 106, 74
2023/06/20 23:04:19.404, 97, 103, 67
2023/06/20 23:04:20.540, 93, 104, 69
2023/06/20 23:04:21.675, 92, 102, 69
2023/06/20 23:04:22.796, 95, 100, 66
2023/06/20 23:04:23.931, 95, 99, 69
2023/06/20 23:04:25.051, 95, 101, 73
2023/06/20 23:04:26.187, 96, 104, 72
2023/06/20 23:04:27.306, 91, 101, 70
2023/06/20 23:04:28.443, 92, 103, 75
2023/06/20 23:04:29.563, 90, 104, 74
2023/06/20 23:04:30.699, 95, 103, 74
2023/06/20 23:04:31.835, 93, 102, 70
2023/06/20 23:04:32.955, 93, 104, 74
2023/06/20 23:04:34.091, 91, 106, 73
2023/06/20 23:04:35.211, 95, 101, 82
2023/06/20 23:04:36.347, 90, 105, 79
2023/06/20 23:04:37.467, 96, 101, 74
2023/06/20 23:04:38.602, 96, 103, 69
2023/06/20 23:04:39.738, 94, 101, 68
2023/06/20 23:04:40.858, 93, 103, 69
2023/06/20 23:04:41.994, 93, 102, 70
2023/06/20 23:04:43.114, 93, 102, 68
2023/06/20 23:04:44.250, 99, 101, 67
2023/06/20 23:04:45.370, 95, 100, 68
2023/06/20 23:04:46.506, 92, 100, 67
2023/06/20 23:04:47.642, 93, 98, 69
2023/06/20 23:04:48.762, 92, 99, 70
2023/06/20 23:04:49.898, 94, 100, 67
2023/06/20 23:04:51.018, 90, 100, 67
2023/06/20 23:04:52.153, 91, 104, 72
2023/06/20 23:04:53.274, 93, 99, 70
2023/06/20 23:04:54.410, 93, 101, 70
2023/06/20 23:04:55.530, 91, 99, 71
2023/06/20 23:04:56.665, 93, 102, 68
2023/06/20 23:04:57.801, 94, 100, 69
2023/06/20 23:04:58.921, 92, 99, 68
2023/06/20 23:05:00.057, 90, 97, 67
2023/06/20 23:05:01.177, 92, 101, 68
2023/06/20 23:05:02.313, 91, 102, 69
2023/06/20 23:05:03.433, 92, 98, 68
2023/06/20 23:05:04.569, 89, 101, 69
2023/06/20 23:05:05.689, 89, 104, 68
2023/06/20 23:05:06.825, 91, 101, 67
2023/06/20 23:05:07.961, 89, 100, 70
2023/06/20 23:05:09.081, 89, 99, 66
2023/06/20 23:05:10.217, 92, 98, 65
2023/06/20 23:05:11.337, 89, 98, 67
2023/06/20 23:05:12.472, 91, 98, 67
2023/06/20 23:05:13.592, 89, 99, 65
2023/06/20 23:05:14.728, 92, 98, 71
2023/06/20 23:05:15.848, 90, 100, 65
2023/06/20 23:05:16.984, 88, 100, 68
2023/06/20 23:05:18.104, 90, 97, 64
2023/06/20 23:05:19.240, 92, 100, 66
2023/06/20 23:05:20.360, 92, 95, 66
2023/06/20 23:05:21.496, 89, 102, 65
2023/06/20 23:05:22.632, 90, 104, 66
2023/06/20 23:05:23.752, 91, 95, 68
2023/06/20 23:05:24.887, 90, 95, 66
2023/06/20 23:05:26.008, 93, 97, 65
2023/06/20 23:05:27.144, 91, 96, 66
2023/06/20 23:05:28.264, 92, 97, 66
2023/06/20 23:05:29.399, 89, 99, 67
2023/06/20 23:05:30.519, 90, 96, 68
2023/06/20 23:05:31.655, 90, 97, 63
2023/06/20 23:05:32.775, 91, 95, 64
2023/06/20 23:05:33.911, 93, 96, 67
2023/06/20 23:05:35.031, 87, 95, 67
2023/06/20 23:05:36.167, 91, 97, 66
2023/06/20 23:05:37.287, 89, 96, 67
2023/06/20 23:05:38.423, 89, 96, 67
2023/06/20 23:05:39.543, 92, 96, 66
2023/06/20 23:05:40.679, 88, 98, 66
2023/06/20 23:05:41.799, 88, 96, 66
2023/06/20 23:05:42.934, 91, 93, 64
2023/06/20 23:05:44.055, 89, 96, 67
2023/06/20 23:05:45.190, 89, 96, 67
2023/06/20 23:05:46.310, 89, 99, 66
2023/06/20 23:05:47.446, 91, 96, 65
2023/06/20 23:05:48.566, 89, 95, 67
2023/06/20 23:05:49.703, 90, 94, 68
2023/06/20 23:05:50.822, 90, 93, 64
2023/06/20 23:05:51.958, 89, 95, 63
2023/06/20 23:05:53.094, 88, 97, 67
2023/06/20 23:05:54.214, 89, 93, 64
2023/06/20 23:05:55.350, 87, 92, 64
2023/06/20 23:05:56.469, 90, 92, 67
2023/06/20 23:05:57.606, 89, 95, 66
2023/06/20 23:05:58.725, 88, 98, 67
2023/06/20 23:05:59.862, 89, 93, 67
2023/06/20 23:06:00.981, 89, 96, 66
2023/06/20 23:06:02.117, 88, 98, 66
2023/06/20 23:06:03.237, 90, 99, 64
2023/06/20 23:06:04.373, 89, 118, 65
2023/06/20 23:06:05.493, 90, 153, 66
2023/06/20 23:06:06.629, 89, 105, 62
2023/06/20 23:06:07.749, 87, 97, 66
2023/06/20 23:06:08.885, 89, 94, 65
2023/06/20 23:06:10.021, 85, 96, 64
2023/06/20 23:06:11.141, 89, 97, 65
2023/06/20 23:06:12.277, 88, 96, 63
2023/06/20 23:06:13.397, 90, 97, 65
2023/06/20 23:06:14.533, 87, 97, 67
2023/06/20 23:06:15.653, 88, 96, 64
2023/06/20 23:06:16.789, 87, 95, 67
2023/06/20 23:06:17.908, 88, 97, 68
2023/06/20 23:06:19.044, 89, 96, 65
2023/06/20 23:06:20.164, 87, 96, 63
2023/06/20 23:06:21.300, 88, 95, 62
2023/06/20 23:06:22.420, 88, 95, 65
2023/06/20 23:06:23.555, 89, 96, 65
2023/06/20 23:06:24.676, 87, 92, 62
2023/06/20 23:06:25.812, 87, 91, 67
2023/06/20 23:06:26.932, 87, 90, 65
2023/06/20 23:06:28.068, 87, 92, 65
2023/06/20 23:06:29.188, 89, 91, 63
2023/06/20 23:06:30.324, 89, 92, 64
2023/06/20 23:06:31.443, 88, 90, 65
2023/06/20 23:06:32.580, 91, 93, 63
2023/06/20 23:06:33.700, 89, 88, 65
2023/06/20 23:06:34.836, 88, 93, 71
2023/06/20 23:06:35.955, 85, 91, 66
2023/06/20 23:06:37.091, 89, 90, 65
2023/06/20 23:06:38.211, 89, 92, 64
2023/06/20 23:06:39.347, 88, 91, 63
2023/06/20 23:06:40.466, 87, 92, 65
2023/06/20 23:06:41.603, 88, 92, 66
2023/06/20 23:06:42.739, 85, 91, 68
2023/06/20 23:06:43.859, 86, 92, 64
2023/06/20 23:06:44.995, 86, 93, 65
2023/06/20 23:06:46.115, 89, 93, 63
2023/06/20 23:06:47.251, 86, 93, 65
2023/06/20 23:06:48.371, 86, 97, 65
2023/06/20 23:06:49.507, 88, 94, 66
2023/06/20 23:06:50.626, 87, 92, 67
2023/06/20 23:06:51.762, 87, 91, 65
2023/06/20 23:06:52.882, 86, 94, 67
2023/06/20 23:06:54.018, 85, 96, 64
2023/06/20 23:06:55.138, 88, 91, 64
2023/06/20 23:06:56.274, 86, 93, 67
2023/06/20 23:06:57.394, 85, 90, 63
2023/06/20 23:06:58.530, 85, 90, 65
2023/06/20 23:06:59.650, 87, 90, 63
2023/06/20 23:07:00.786, 87, 89, 63
2023/06/20 23:07:01.906, 88, 92, 64
2023/06/20 23:07:03.042, 88, 92, 65
2023/06/20 23:07:04.162, 85, 90, 65
2023/06/20 23:07:05.298, 87, 90, 65
2023/06/20 23:07:06.434, 85, 89, 63
2023/06/20 23:07:07.554, 86, 91, 61
2023/06/20 23:07:08.689, 90, 92, 64
2023/06/20 23:07:09.809, 86, 95, 62
2023/06/20 23:07:10.945, 86, 90, 65
2023/06/20 23:07:12.065, 86, 92, 66
2023/06/20 23:07:13.201, 84, 92, 62
2023/06/20 23:07:14.321, 86, 91, 62
2023/06/20 23:07:15.457, 86, 90, 63
2023/06/20 23:07:16.577, 88, 90, 60
2023/06/20 23:07:17.712, 88, 93, 63
2023/06/20 23:07:18.833, 85, 91, 63
2023/06/20 23:07:19.969, 86, 91, 64
2023/06/20 23:07:21.089, 84, 89, 62
2023/06/20 23:07:22.225, 88, 91, 62
2023/06/20 23:07:23.344, 87, 90, 62
2023/06/20 23:07:24.480, 88, 90, 60
2023/06/20 23:07:25.600, 86, 90, 62
2023/06/20 23:07:26.735, 86, 88, 66
2023/06/20 23:07:27.856, 86, 87, 63
2023/06/20 23:07:28.992, 87, 90, 62
2023/06/20 23:07:30.112, 85, 92, 65
2023/06/20 23:07:31.248, 87, 89, 61
2023/06/20 23:07:32.368, 85, 92, 64
2023/06/20 23:07:33.504, 86, 89, 64
2023/06/20 23:07:34.624, 84, 91, 61
2023/06/20 23:07:35.760, 86, 90, 68
2023/06/20 23:07:36.880, 85, 91, 61
2023/06/20 23:07:38.016, 86, 88, 61
2023/06/20 23:07:39.136, 84, 93, 62
2023/06/20 23:07:40.271, 86, 92, 63
2023/06/20 23:07:41.407, 85, 93, 62
2023/06/20 23:07:42.527, 82, 91, 61
2023/06/20 23:07:43.663, 87, 89, 62
2023/06/20 23:07:44.783, 85, 89, 63
2023/06/20 23:07:45.919, 86, 94, 62
2023/06/20 23:07:47.039, 88, 88, 64
2023/06/20 23:07:48.175, 86, 88, 64
2023/06/20 23:07:49.295, 86, 91, 66
2023/06/20 23:07:50.431, 81, 90, 63
2023/06/20 23:07:51.551, 86, 90, 65
2023/06/20 23:07:52.687, 84, 90, 64
2023/06/20 23:07:53.807, 84, 91, 65
2023/06/20 23:07:54.943, 84, 91, 62
2023/06/20 23:07:56.063, 87, 91, 61
2023/06/20 23:07:57.198, 84, 92, 62
2023/06/20 23:07:58.318, 87, 90, 65
2023/06/20 23:07:59.454, 86, 88, 66
2023/06/20 23:08:00.574, 84, 87, 60
2023/06/20 23:08:01.710, 88, 89, 62
2023/06/20 23:08:02.830, 85, 89, 62
2023/06/20 23:08:03.966, 87, 89, 64
2023/06/20 23:08:05.086, 84, 91, 63
2023/06/20 23:08:06.221, 85, 89, 62
2023/06/20 23:08:07.357, 86, 89, 63
2023/06/20 23:08:08.478, 85, 89, 63
2023/06/20 23:08:09.614, 85, 91, 65
2023/06/20 23:08:10.734, 87, 95, 66
2023/06/20 23:08:11.870, 84, 89, 63
2023/06/20 23:08:12.989, 84, 86, 66
2023/06/20 23:08:14.125, 86, 88, 61
2023/06/20 23:08:15.245, 85, 89, 62
2023/06/20 23:08:16.381, 86, 90, 61
2023/06/20 23:08:17.501, 84, 88, 65
2023/06/20 23:08:18.637, 85, 88, 63
2023/06/20 23:08:19.757, 87, 87, 62
2023/06/20 23:08:20.893, 84, 87, 62
2023/06/20 23:08:22.013, 85, 91, 62
2023/06/20 23:08:23.149, 87, 89, 64
2023/06/20 23:08:24.268, 84, 89, 64
2023/06/20 23:08:25.404, 82, 89, 64
2023/06/20 23:08:26.525, 83, 88, 63
2023/06/20 23:08:27.661, 83, 88, 62
2023/06/20 23:08:28.781, 85, 90, 62
2023/06/20 23:08:29.916, 84, 88, 62
2023/06/20 23:08:31.036, 85, 91, 62
2023/06/20 23:08:32.172, 84, 89, 64
2023/06/20 23:08:33.292, 88, 91, 60
2023/06/20 23:08:34.428, 87, 91, 63
2023/06/20 23:08:35.547, 86, 90, 63
2023/06/20 23:08:36.684, 85, 88, 63
2023/06/20 23:08:37.804, 84, 89, 59
2023/06/20 23:08:38.940, 85, 91, 63
2023/06/20 23:08:40.059, 84, 87, 64
2023/06/20 23:08:41.196, 84, 89, 60
2023/06/20 23:08:42.332, 85, 89, 63
2023/06/20 23:08:43.452, 84, 89, 64
2023/06/20 23:08:44.588, 86, 87, 61
2023/06/20 23:08:45.707, 84, 86, 63
2023/06/20 23:08:46.843, 85, 88, 64
2023/06/20 23:08:47.963, 86, 90, 65
2023/06/20 23:08:49.100, 84, 88, 62
2023/06/20 23:08:50.219, 86, 92, 60
2023/06/20 23:08:51.355, 83, 87, 64
2023/06/20 23:08:52.475, 83, 88, 60
2023/06/20 23:08:53.611, 85, 91, 62
2023/06/20 23:08:54.731, 83, 90, 64
2023/06/20 23:08:55.867, 82, 88, 63
2023/06/20 23:08:56.987, 83, 86, 63
2023/06/20 23:08:58.123, 83, 87, 65
2023/06/20 23:08:59.243, 85, 86, 63
2023/06/20 23:09:00.378, 87, 89, 63
2023/06/20 23:09:01.498, 83, 86, 63
2023/06/20 23:09:02.634, 85, 89, 61
2023/06/20 23:09:03.754, 86, 90, 64
2023/06/20 23:09:04.890, 83, 88, 61
2023/06/20 23:09:06.010, 83, 88, 61
2023/06/20 23:09:07.146, 87, 92, 66
2023/06/20 23:09:08.282, 83, 91, 63
2023/06/20 23:09:09.402, 85, 89, 61
2023/06/20 23:09:10.538, 85, 88, 63
2023/06/20 23:09:11.658, 83, 88, 65
2023/06/20 23:09:12.794, 87, 86, 65
2023/06/20 23:09:13.914, 84, 88, 61
2023/06/20 23:09:15.050, 83, 87, 63
2023/06/20 23:09:16.169, 86, 86, 62
2023/06/20 23:09:17.306, 86, 85, 61
2023/06/20 23:09:18.425, 84, 89, 61
2023/06/20 23:09:19.561, 87, 90, 60
2023/06/20 23:09:20.681, 87, 89, 66
2023/06/20 23:09:21.817, 85, 87, 64
2023/06/20 23:09:22.937, 83, 87, 62
2023/06/20 23:09:24.072, 84, 86, 60
2023/06/20 23:09:25.193, 83, 89, 64
2023/06/20 23:09:26.328, 84, 88, 61
2023/06/20 23:09:27.449, 82, 89, 63
2023/06/20 23:09:28.585, 85, 88, 60
2023/06/20 23:09:29.704, 84, 86, 59
2023/06/20 23:09:30.841, 81, 87, 60
2023/06/20 23:09:31.960, 85, 86, 63
2023/06/20 23:09:33.096, 84, 86, 65
2023/06/20 23:09:34.216, 80, 87, 62
2023/06/20 23:09:35.352, 84, 87, 62
2023/06/20 23:09:36.472, 83, 85, 63
2023/06/20 23:09:37.608, 84, 88, 64
2023/06/20 23:09:38.728, 84, 88, 62
2023/06/20 23:09:39.864, 83, 88, 63
2023/06/20 23:09:40.984, 83, 87, 61
2023/06/20 23:09:42.120, 85, 85, 61
2023/06/20 23:09:43.256, 82, 85, 62
2023/06/20 23:09:44.376, 83, 89, 62
2023/06/20 23:09:45.512, 82, 88, 60
2023/06/20 23:09:46.632, 82, 87, 60
2023/06/20 23:09:47.768, 83, 87, 61
2023/06/20 23:09:48.888, 85, 88, 63
2023/06/20 23:09:50.024, 84, 86, 62
2023/06/20 23:09:51.144, 81, 88, 65
2023/06/20 23:09:52.279, 85, 88, 62
2023/06/20 23:09:53.399, 86, 87, 61
2023/06/20 23:09:54.535, 83, 86, 63
2023/06/20 23:09:55.655, 83, 87, 62
2023/06/20 23:09:56.791, 85, 86, 59
2023/06/20 23:09:57.911, 83, 86, 64
2023/06/20 23:09:59.047, 85, 88, 62
2023/06/20 23:10:00.167, 84, 87, 61
2023/06/20 23:10:01.303, 84, 88, 62
2023/06/20 23:10:02.423, 84, 85, 60
2023/06/20 23:10:03.559, 84, 88, 62
2023/06/20 23:10:04.678, 83, 86, 61
2023/06/20 23:10:05.814, 82, 88, 65
2023/06/20 23:10:06.934, 84, 85, 64
2023/06/20 23:10:08.070, 84, 86, 63
2023/06/20 23:10:09.205, 85, 85, 64
2023/06/20 23:10:10.326, 86, 89, 65
2023/06/20 23:10:11.462, 87, 86, 62
2023/06/20 23:10:12.582, 84, 88, 65
2023/06/20 23:10:13.718, 83, 88, 63
2023/06/20 23:10:14.838, 85, 88, 64
2023/06/20 23:10:15.974, 86, 90, 66
2023/06/20 23:10:17.094, 85, 89, 63
2023/06/20 23:10:18.230, 84, 89, 66
2023/06/20 23:10:19.350, 88, 93, 69
2023/06/20 23:10:20.486, 89, 94, 68
2023/06/20 23:10:21.606, 85, 95, 67
2023/06/20 23:10:22.741, 86, 97, 67
2023/06/20 23:10:23.862, 88, 93, 68
2023/06/20 23:10:24.997, 89, 125, 66
2023/06/20 23:10:26.117, 90, 98, 69
2023/06/20 23:10:27.253, 91, 102, 68
2023/06/20 23:10:28.373, 92, 99, 68
2023/06/20 23:10:29.509, 91, 101, 66
2023/06/20 23:10:30.645, 90, 100, 69
2023/06/20 23:10:31.765, 94, 101, 70
2023/06/20 23:10:32.901, 91, 108, 72
2023/06/20 23:10:34.021, 95, 105, 73
2023/06/20 23:10:35.157, 93, 105, 69
2023/06/20 23:10:36.276, 94, 108, 73
2023/06/20 23:10:37.412, 95, 102, 70
2023/06/20 23:10:38.549, 92, 111, 73
2023/06/20 23:10:39.668, 94, 106, 72
2023/06/20 23:10:40.804, 95, 110, 73
2023/06/20 23:10:41.925, 97, 109, 71
2023/06/20 23:10:43.060, 94, 109, 74
2023/06/20 23:10:44.180, 94, 110, 74
2023/06/20 23:10:45.316, 98, 105, 74
2023/06/20 23:10:46.451, 98, 109, 72
2023/06/20 23:10:47.572, 99, 108, 76
2023/06/20 23:10:48.708, 96, 111, 76
2023/06/20 23:10:49.828, 97, 109, 74
2023/06/20 23:10:50.964, 94, 107, 72
2023/06/20 23:10:52.084, 100, 115, 73
2023/06/20 23:10:53.220, 100, 118, 77
2023/06/20 23:10:54.356, 102, 115, 72
2023/06/20 23:10:55.476, 110, 115, 80
2023/06/20 23:10:56.611, 100, 172, 77
2023/06/20 23:10:57.747, 101, 110, 93
2023/06/20 23:10:58.867, 101, 123, 93
2023/06/20 23:11:00.003, 101, 128, 78
2023/06/20 23:11:01.123, 101, 114, 80
2023/06/20 23:11:02.259, 101, 116, 79
2023/06/20 23:11:03.395, 99, 125, 76
2023/06/20 23:11:04.515, 100, 127, 77
2023/06/20 23:11:05.651, 99, 116, 78
2023/06/20 23:11:06.771, 104, 118, 77
2023/06/20 23:11:07.907, 99, 119, 79
2023/06/20 23:11:09.043, 103, 115, 106
2023/06/20 23:11:10.163, 103, 122, 79
2023/06/20 23:11:11.298, 103, 120, 77
2023/06/20 23:11:12.434, 102, 116, 75
2023/06/20 23:11:13.554, 102, 120, 78
2023/06/20 23:11:14.690, 105, 121, 78
2023/06/20 23:11:15.810, 100, 131, 79
2023/06/20 23:11:16.946, 104, 118, 81
2023/06/20 23:11:18.082, 107, 122, 78
2023/06/20 23:11:19.202, 104, 114, 78
2023/06/20 23:11:20.338, 103, 122, 79
2023/06/20 23:11:21.474, 104, 122, 87
2023/06/20 23:11:22.594, 102, 116, 81
2023/06/20 23:11:23.730, 102, 118, 80
2023/06/20 23:11:24.850, 105, 118, 80
2023/06/20 23:11:25.985, 102, 121, 79
2023/06/20 23:11:27.122, 107, 119, 83
2023/06/20 23:11:28.242, 103, 126, 78
2023/06/20 23:11:29.378, 106, 124, 80
2023/06/20 23:11:30.497, 109, 127, 80
2023/06/20 23:11:31.634, 107, 122, 79
2023/06/20 23:11:32.769, 110, 132, 81
2023/06/20 23:11:33.889, 126, 125, 80
2023/06/20 23:11:35.025, 107, 129, 82
2023/06/20 23:11:36.161, 105, 126, 79
2023/06/20 23:11:37.281, 106, 121, 81
2023/06/20 23:11:38.417, 108, 125, 79
2023/06/20 23:11:39.537, 108, 127, 82
2023/06/20 23:11:40.673, 108, 126, 84
2023/06/20 23:11:41.809, 148, 124, 81
2023/06/20 23:11:42.929, 105, 122, 83
2023/06/20 23:11:44.065, 111, 128, 82
2023/06/20 23:11:45.200, 107, 127, 84
2023/06/20 23:11:46.320, 105, 124, 81
2023/06/20 23:11:47.456, 108, 129, 84
2023/06/20 23:11:48.576, 110, 124, 81
2023/06/20 23:11:49.712, 110, 130, 85
2023/06/20 23:11:50.848, 108, 130, 83
2023/06/20 23:11:51.968, 107, 125, 81
2023/06/20 23:11:53.104, 107, 132, 81
2023/06/20 23:11:54.240, 111, 127, 80
2023/06/20 23:11:55.360, 107, 130, 85
2023/06/20 23:11:56.496, 114, 134, 80
2023/06/20 23:11:57.616, 113, 133, 81
2023/06/20 23:11:58.752, 108, 129, 81
2023/06/20 23:11:59.888, 111, 414, 90
2023/06/20 23:12:01.007, 109, 155, 82
2023/06/20 23:12:02.144, 113, 123, 84